Regional Weather Roundup
Issued by NWS

Home | Current Version | Previous Version | Text Only | Print | Product List | Glossary Off
Versions: 1 2 3 4 5 6 7 8 9 10 11 12 13 14 15 16 17 18 19 20 21 22 23 24 25 26 27 28

000
ASUS45 KSLC 242110
RWRUT

UTAH REGIONAL WEATHER ROUNDUP
NATIONAL WEATHER SERVICE SALT LAKE CITY UT
300 PM MDT WED MAY 24 2017

UTZ001>011-023>025-242200-

NORTHERN UTAH

CITY           SKY/WX    TMP DP  RH WIND       PRES   REMARKS
BRIGHAM CITY   MOSUNNY   82  34  17 SW14G20   29.66F
DUGWAY         PTSUNNY   87  29  12 NW7G17    29.67F
HILL AFB       MOSUNNY   81  36  19 W16       29.70F
LOGAN          MOSUNNY   80  41  24 SW13G25   29.65F
OGDEN          MOSUNNY   82  35  18 SW12      29.68F
SALT LAKE CITY MOSUNNY   88  33  14 W12G23    29.66F
TOOELE VALLEY  SUNNY     86  39  19 W14G22    29.67F
WENDOVER       MOSUNNY   87  34  15 W20G36    29.65F
HEBER CITY     MOSUNNY   82  32  16 SW13      29.75F
WEST JORDAN    MOSUNNY   83  49  30 W12G22    29.70F

$$

UTZ011>015-024>027-242200-

CENTRAL/NORTHEAST UTAH

CITY           SKY/WX    TMP DP  RH WIND       PRES   REMARKS
PROVO AIRPORT  MOSUNNY   82  34  17 VRB6      29.71F
MOAB/CANYONLAN SUNNY     90  25   9 W16G24    29.70F
DELTA          SUNNY     86  27  11 W16G22    29.73F
PRICE          NOT AVBL
RICHFIELD      MOSUNNY   84  34  16 W9G20     29.78F
ROOSEVELT      MOSUNNY   86  28  12 W21G28    29.74F
VERNAL         SUNNY     85  34  16 SW14G23   29.71F

$$

UTZ013>016-019>022-027-242200-

SOUTHERN UTAH

CITY           SKY/WX    TMP DP  RH WIND       PRES   REMARKS
BRYCE CANYON   SUNNY     75  23  14 SW23G36   30.01F
CEDAR CITY     SUNNY     85  26  11 SW22G31   29.85F
MILFORD        MOSUNNY   88  25  10 SW24G31   29.75F
ST GEORGE      PTCLDY    97  28   8 W28G33    29.67F HX  91
HANKSVILLE     MOSUNNY   93  28  10 NW15      29.71F
KANAB          SUNNY     90  23   9 SW13G32   29.86F
BLANDING       SUNNY     83  24  11 SW20G35   29.94F

$$

REGIONAL REPORTS     COLORADO/ARIZONA

CITY           SKY/WX    TMP DP  RH WIND       PRES   REMARKS
CRAIG, CO      SUNNY     76  32  20 W17G26    29.79F
GRAND JUNCTION SUNNY     84  31  14 NW9G16    29.75F
RIFLE, CO      SUNNY     82  26  13 W14G29    29.79F
MONTROSE, CO   MOSUNNY   83  28  13 NW13G25   29.83F
CORTEZ, CO     SUNNY     81  26  13 W9G30     29.90F
COLORADO CITY    N/A     91  28  10 W15G28    29.87F
PAGE, AZ       SUNNY     93  22   7 W10       29.75F
GRAND CANYON   SUNNY     82  22  11 SW28G35   29.99F
KINGMAN, AZ    MOSUNNY   98  28   8 SW25G35   29.80F HX  92
FLAGSTAFF, AZ  SUNNY     78  21  12 SW26G35   30.04F

$$

REGIONAL REPORTS    NEVADA/IDAHO/WYOMING

CITY           SKY/WX    TMP DP  RH WIND       PRES   REMARKS
LAS VEGAS, NV  MOSUNNY   99  -2   2 SW16G31   29.62F HX  91
ELY, NY        MOSUNNY   81  27  14 S17G29    29.83F
ELKO, NV       MOSUNNY   82  31  15 SW20G41   29.74F
POCATELLO, ID  MOSUNNY   74  42  31 SW29G38   29.67F
BURLEY, ID     SUNNY     71  39  31 W18G31    29.67F
FORT BRIDGER,  CLOUDY    71  31  22 W28G39    29.85F
EVANSTON, WY   CLOUDY    72  35  25 W29G39    29.83F
ROCK SPRINGS,  CLOUDY    72  30  21 W30G41    29.76F
KEMMERER, WY     N/A     68  32  26 W31G45    29.81F

$$




USA.gov is the U.S. government's official web portal to all federal, state and local government web resources and services.